Hourly Weather Roundup
Issued by NWS Central Illinois

Home | Current Version | Previous Version | Text Only | Print | Product List | Glossary On
Versions: 1 2 3 4 5 6 7 8 9 10 11 12 13 14 15 16 17 18 19 20 21 22 23 24 25 26 27 28 29 30 31 32 33 34 35 36 37 38 39 40 41 42 43 44 45 46 47 48 49 50
000
NZUS43 KILX 292110
HWRILX

AREA WEATHER ROUNDUP
NATIONAL WEATHER SERVICE, LINCOLN IL
400 PM CDT FRI APR 29 2016


CITY           SKY/WX    TMP DP  RH WIND       PRES   REMARKS
BLOOMINGTON    CLOUDY    57  48  72 E6        30.08F
CHAMPAIGN      CLOUDY    60  48  64 MISG      30.06S
DANVILLE       CLOUDY    57  48  72 N3        30.04F
DECATUR        CLOUDY    61  49  64 E5        30.05F
EFFINGHAM      CLOUDY    64  52  65 SE3       30.04S
FLORA          CLOUDY    65  53  63 E5        30.02F
GALESBURG      CLOUDY    53  44  73 E7        30.08F
JACKSONVILLE   CLOUDY    56  49  76 NE9       30.04F
LACON          CLOUDY    50  43  74 CALM      30.10S
LAWRENCEVILLE  CLOUDY    66  51  58 E3        30.03F
LITCHFIELD     CLOUDY    63  49  61 CALM      30.02F
$$


CITY           SKY/WX    TMP DP  RH WIND       PRES   REMARKS
LINCOLN        CLOUDY    58  48  71 SE3       30.06F
MACOMB         CLOUDY    53  46  78 E7        30.09F
MATTOON        CLOUDY    62  49  62 CALM      30.02F
MT CARMEL AP   NOT AVBL
OLNEY-NOBLE AP CLOUDY    63  52  67 CALM      30.02F
PARIS          CLOUDY    61  49  63 CALM      30.06S
PEORIA         CLOUDY    54  44  69 NE6       30.09R
PONTIAC        CLOUDY    53  47  80 NE3       30.11R
RANTOUL        CLOUDY    59  48  67 E3        30.07F
ROBINSON       CLOUDY    64  53  66 CALM      30.04F
SPRINGFIELD    CLOUDY    60  50  69 NE10      30.05F
TAYLORVILLE    CLOUDY    61  52  72 NE7       30.04F
$$

...REGIONAL REPORTS...


CITY           SKY/WX    TMP DP  RH WIND       PRES   REMARKS
CHICAGO O`HARE CLOUDY    49  39  68 N7        30.11R
KANKAKEE       CLOUDY    53  42  68 N3        30.10S
MOLINE         CLOUDY    52  41  66 E7        30.09F
MOUNT STERLING CLOUDY    55  48  77 E10       30.04F
MOUNT VERNON   CLOUDY    64  52  63 E7        30.02F
PITTSFIELD     CLOUDY    57  51  80 NE8       30.04F
QUINCY         CLOUDY    56  48  74 NE12      30.03F
ROCKFORD       CLOUDY    49  40  71 NE6       30.14S
$$


CITY           SKY/WX    TMP DP  RH WIND       PRES   REMARKS
BURLINGTON     CLOUDY    52  45  77 NE8       30.07F
CEDAR RAPIDS   CLOUDY    50  43  77 E7        30.09F
DES MOINES     CLOUDY    51  41  68 NE10      30.05F
KIRKSVILLE     CLOUDY    53  45  74 E10       30.04
OTTUMWA        CLOUDY    51  42  71 E12       30.06F
ST LOUIS       CLOUDY    64  50  60 NE6       30.01F
$$


CITY           SKY/WX    TMP DP  RH WIND       PRES   REMARKS
TERRE HAUTE    CLOUDY    64  49  57 E3        30.03F
EVANSVILLE     CLOUDY    66  51  58 E3        30.02F
INDIANAPOLIS   CLOUDY    64  46  52 NW6       30.03F
LAFAYETTE      CLOUDY    57  47  69 NE6       30.07R
MADISON        CLOUDY    51  38  60 E6        30.12R
MILWAUKEE      MOSUNNY   46  38  73 NE9       30.14R
$$





USA.gov is the U.S. government's official web portal to all federal, state and local government web resources and services.